Location: Unspecified
(43.4354°N, 0.0000°E)
Time: 01:25:59
(UTC+00:00)

Tiros 1 despin weight - Pass Details

Date: 28 June 2019
Orbit: 594 x 642 km, 48.2° (Epoch: 21 July)

Event Time Altitude Azimuth Distance (km) Brightness Sun altitude
Rises 01:23:10 0° 293° (WNW) 2,844 ? -20.8°
Reaches altitude 10° 01:25:29 10° 295° (WNW) 1,935 ? -20.6°
Maximum altitude 01:29:54 69° 19° (NNE) 639 ? -20.4°
Drops below altitude 10° 01:34:17 10° 104° (ESE) 1,922 ? -20.1°
Sets 01:36:35 0° 106° (ESE) 2,823 ? -19.9°
